Regional Weather Roundup
Issued by NWS Charleston, WV

Home | Current Version | Previous Version | Graphics & Text | Print | Product List | Glossary On
Versions: 1 2 3 4 5 6 7 8 9 10 11 12 13 14 15 16 17 18 19 20 21 22 23 24 25 26 27 28 29 30 31 32 33 34 35 36 37 38 39 40 41 42 43 44 45 46 47 48 49 50
000
ASUS41 KRLX 030510
RWRRLX
West Virginia Regional Weather Roundup
National Weather Service Charleston WV
100 AM EDT FRI JUL 03 2015

Note: "fair" indicates few or no clouds below 12,000 feet with no
significant weather and/or obstructions to visibility.

WVZ003-030600-
Northern Panhandle of West Virginia

CITY           SKY/WX    TMP DP  RH WIND       PRES   REMARKS
WHEELING       PTCLDY    62  55  77 N7        29.98R
$$

WVZ009-030600-
Northwest West Virginia

CITY           SKY/WX    TMP DP  RH WIND       PRES   REMARKS
PARKERSBURG    PTCLDY    65  63  93 CALM      29.97S FOG
$$

WVZ006-030600-
Western West Virginia

CITY           SKY/WX    TMP DP  RH WIND       PRES   REMARKS
HUNTINGTON     MOCLDY    66  66 100 E5        29.92R FOG
$$

WVZ015-030600-
West Central West Virginia

CITY           SKY/WX    TMP DP  RH WIND       PRES   REMARKS
CHARLESTON     MOCLDY    65  63  93 CALM      29.93F FOG
$$

WVZ022-031-030600-
North Central West Virginia

CITY           SKY/WX    TMP DP  RH WIND       PRES   REMARKS
CLARKSBURG     CLEAR     60  59  96 CALM      29.97R FOG
MORGANTOWN     PTCLDY    61  55  81 CALM      29.97R
$$

WVZ025-035-042-045-030600-
Southern West Virginia

CITY           SKY/WX    TMP DP  RH WIND       PRES   REMARKS
BECKLEY        CLOUDY    64  60  87 SE5       30.00F
LOGAN          FOG       66  66 100 CALM      29.92S VSB 1
BLUEFIELD      CLOUDY    66  62  87 CALM      30.03S
LEWISBURG      CLOUDY    65  63  90 CALM      30.01S FOG
$$

WVZ047-030600-
Northern Mountains of West Virginia

CITY           SKY/WX    TMP DP  RH WIND       PRES   REMARKS
ELKINS         PTCLDY    57  55  93 CALM      30.00S FOG
$$

WVZ052-030600-
Eastern Panhandle of West Virginia

CITY           SKY/WX    TMP DP  RH WIND       PRES   REMARKS
MARTINSBURG    FOG       64  62  93 CALM      29.93S VSB 1/4
PETERSBURG     CLEAR     57  55  91 CALM      29.98R FOG
$$


USA.gov is the U.S. government's official web portal to all federal, state and local government web resources and services.